When you browse on this site, cookies collect data to enhance your experience and personalize the content and advertising you see.
Visit our Privacy Policy to learn more. By continuing to use the site, you agree to this use of cookies and data.
  • In Latvia
  • List of Countries
  • For 7 days
  • Water Temperature
  • Satellite Maps
  • Weather Map
  • Weather Widgets
  • user-avatar
    Login

    Hourly Weather Hrazdan

    Today, 11 December, Tuesday

    Time Temperature Precipitation Wind Pressure Humidity
    00:00 -2°C° 0 mm 3 mps 610 mmHg 75%
    01:00 -2°C° 0 mm 3 mps 610 mmHg 76%
    02:00 -2°C° 0 mm 3 mps 610 mmHg 76%
    03:00 -2°C° 0 mm 3 mps 609 mmHg 78%
    04:00 -2°C° 0 mm 3 mps 609 mmHg 77%
    05:00 -2°C° 0 mm 3 mps 609 mmHg 77%
    06:00 -2°C° 0 mm 3 mps 609 mmHg 77%
    07:00 -1°C° 0 mm 3 mps 610 mmHg 74%
    08:00 0°C° 0 mm 3 mps 610 mmHg 71%
    09:00 0°C° 0 mm 3 mps 610 mmHg 68%
    10:00 +1°C° 0 mm 3 mps 610 mmHg 65%
    11:00 +2°C° 0 mm 3 mps 610 mmHg 62%
    12:00 +3°C° 0 mm 4 mps 609 mmHg 60%
    13:00 +3°C° 0 mm 3 mps 609 mmHg 60%
    14:00 +3°C° 0 mm 3 mps 609 mmHg 60%
    15:00 +3°C° 0 mm 3 mps 609 mmHg 60%
    16:00 +2°C° 0 mm 3 mps 608 mmHg 64%
    17:00 +1°C° 0 mm 3 mps 608 mmHg 68%
    18:00 -1°C° 0 mm 3 mps 608 mmHg 72%
    19:00 0°C° 0.1 mm 3 mps 608 mmHg 73%
    20:00 0°C° 0.1 mm 3 mps 608 mmHg 74%
    21:00 0°C° 0.1 mm 3 mps 608 mmHg 74%
    22:00 0°C° 0.4 mm 3 mps 608 mmHg 76%
    23:00 0°C° 0.4 mm 3 mps 608 mmHg 78%

    Tomorrow, 12 December, Wednesday

    Time Temperature Precipitation Wind Pressure Humidity
    00:00 0°C° 0.4 mm 3 mps 608 mmHg 80%
    01:00 0°C° 0.3 mm 3 mps 609 mmHg 81%
    02:00 0°C° 0.3 mm 3 mps 609 mmHg 82%
    03:00 0°C° 0.3 mm 3 mps 609 mmHg 83%
    04:00 -1°C° 0.2 mm 2 mps 609 mmHg 84%
    05:00 -1°C° 0.2 mm 2 mps 609 mmHg 84%
    06:00 -1°C° 0.2 mm 2 mps 609 mmHg 85%
    07:00 +1°C° 0.2 mm 2 mps 608 mmHg 82%
    08:00 0°C° 0.2 mm 3 mps 608 mmHg 80%
    09:00 0°C° 0.2 mm 3 mps 608 mmHg 77%
    10:00 0°C° 0.6 mm 4 mps 608 mmHg 77%
    11:00 0°C° 0.6 mm 4 mps 607 mmHg 77%
    12:00 0°C° 0.6 mm 4 mps 607 mmHg 77%
    13:00 0°C° 0.6 mm 4 mps 606 mmHg 77%
    14:00 +1°C° 0.6 mm 4 mps 606 mmHg 77%
    15:00 +1°C° 0.6 mm 4 mps 605 mmHg 77%
    16:00 +1°C° 1.3 mm 3 mps 605 mmHg 80%
    17:00 +1°C° 1.3 mm 3 mps 605 mmHg 82%
    18:00 +1°C° 1.3 mm 2 mps 605 mmHg 84%
    19:00 0°C° 1.1 mm 3 mps 605 mmHg 85%
    20:00 0°C° 1.1 mm 3 mps 605 mmHg 85%
    21:00 0°C° 1.1 mm 3 mps 605 mmHg 85%
    22:00 0°C° 1.1 mm 3 mps 605 mmHg 86%
    23:00 0°C° 1.1 mm 3 mps 605 mmHg 87%

    Day after tomorrow, 13 December, Thursday

    Time Temperature Precipitation Wind Pressure Humidity
    00:00 0°C° 1.1 mm 3 mps 605 mmHg 87%
    01:00 0°C° 1.5 mm 3 mps 606 mmHg 88%
    02:00 0°C° 1.5 mm 3 mps 606 mmHg 89%
    03:00 0°C° 1.5 mm 3 mps 606 mmHg 90%
    04:00 -1°C° 0.7 mm 3 mps 606 mmHg 89%
    05:00 -1°C° 0.7 mm 3 mps 606 mmHg 88%
    06:00 -2°C° 0.7 mm 3 mps 606 mmHg 87%
    07:00 -3°C° 0.1 mm 4 mps 606 mmHg 85%
    08:00 -3°C° 0.1 mm 4 mps 607 mmHg 83%
    09:00 -2°C° 0.1 mm 4 mps 608 mmHg 81%
    10:00 -2°C° 0.1 mm 4 mps 608 mmHg 80%
    11:00 -2°C° 0.1 mm 4 mps 608 mmHg 78%
    12:00 -1°C° 0.1 mm 4 mps 608 mmHg 77%
    13:00 -1°C° 0.1 mm 4 mps 609 mmHg 76%
    14:00 0°C° 0.1 mm 3 mps 609 mmHg 76%
    15:00 -1°C° 0.1 mm 3 mps 609 mmHg 75%
    16:00 -2°C° 0 mm 3 mps 609 mmHg 75%
    17:00 -3°C° 0 mm 2 mps 609 mmHg 76%
    18:00 -5°C° 0 mm 2 mps 610 mmHg 76%
    19:00 -5°C° 0 mm 2 mps 610 mmHg 75%
    20:00 -5°C° 0 mm 2 mps 610 mmHg 75%
    21:00 -6°C° 0 mm 2 mps 611 mmHg 74%
    22:00 -6°C° 0 mm 2 mps 611 mmHg 74%
    23:00 -6°C° 0 mm 2 mps 611 mmHg 74%

    14 December, Friday

    Time Temperature Precipitation Wind Pressure Humidity
    00:00 -7°C° 0 mm 2 mps 611 mmHg 73%
    01:00 -7°C° 0 mm 2 mps 611 mmHg 74%
    02:00 -7°C° 0 mm 2 mps 612 mmHg 74%
    03:00 -8°C° 0 mm 2 mps 612 mmHg 74%
    04:00 -8°C° 0 mm 2 mps 612 mmHg 75%
    05:00 -8°C° 0 mm 2 mps 612 mmHg 75%
    06:00 -8°C° 0 mm 2 mps 612 mmHg 76%
    07:00 -7°C° 0 mm 2 mps 613 mmHg 76%
    08:00 -6°C° 0 mm 2 mps 613 mmHg 76%
    09:00 -5°C° 0 mm 2 mps 614 mmHg 76%
    10:00 -4°C° 0 mm 2 mps 613 mmHg 74%
    11:00 -3°C° 0 mm 2 mps 613 mmHg 73%
    12:00 -2°C° 0 mm 2 mps 613 mmHg 71%
    13:00 -2°C° 0 mm 2 mps 613 mmHg 72%
    14:00 -2°C° 0 mm 2 mps 613 mmHg 74%
    15:00 -2°C° 0 mm 2 mps 612 mmHg 75%
    16:00 -3°C° 0.1 mm 2 mps 612 mmHg 77%
    17:00 -4°C° 0.1 mm 2 mps 612 mmHg 78%
    18:00 -4°C° 0.1 mm 2 mps 612 mmHg 80%
    19:00 -4°C° 0.1 mm 2 mps 612 mmHg 80%
    20:00 -5°C° 0.1 mm 2 mps 612 mmHg 80%
    21:00 -5°C° 0.1 mm 2 mps 613 mmHg 79%
    22:00 -5°C° 0.1 mm 2 mps 613 mmHg 80%
    23:00 -5°C° 0.1 mm 2 mps 613 mmHg 80%

    15 December, Saturday

    Time Temperature Precipitation Wind Pressure Humidity
    00:00 -5°C° 0.1 mm 2 mps 613 mmHg 80%
    01:00 -6°C° 0 mm 2 mps 613 mmHg 80%
    02:00 -6°C° 0 mm 2 mps 613 mmHg 80%
    03:00 -6°C° 0 mm 2 mps 613 mmHg 80%
    04:00 -6°C° 0 mm 2 mps 613 mmHg 80%
    05:00 -6°C° 0 mm 2 mps 613 mmHg 80%
    06:00 -4°C° 0 mm 1 mps 613 mmHg 80%
    07:00 -4°C° 0 mm 1 mps 614 mmHg 79%
    08:00 -3°C° 0 mm 1 mps 614 mmHg 79%
    09:00 -2°C° 0 mm 1 mps 615 mmHg 78%
    10:00 -3°C° 0 mm 2 mps 615 mmHg 77%
    11:00 -2°C° 0 mm 2 mps 615 mmHg 76%
    12:00 -1°C° 0 mm 2 mps 615 mmHg 75%
    13:00 -1°C° 0 mm 2 mps 615 mmHg 75%
    14:00 -2°C° 0 mm 2 mps 615 mmHg 76%
    15:00 0°C° 0 mm 1 mps 615 mmHg 76%
    16:00 -1°C° 0 mm 1 mps 615 mmHg 76%
    17:00 -2°C° 0 mm 1 mps 615 mmHg 76%
    18:00 -3°C° 0 mm 1 mps 615 mmHg 76%
    19:00 -3°C° 0 mm 1 mps 615 mmHg 75%
    20:00 -4°C° 0 mm 1 mps 615 mmHg 74%
    21:00 -4°C° 0 mm 1 mps 615 mmHg 74%
    22:00 -4°C° 0 mm 1 mps 615 mmHg 74%
    23:00 -4°C° 0 mm 1 mps 615 mmHg 74%

    16 December, Sunday

    Time Temperature Precipitation Wind Pressure Humidity
    00:00 -4°C° 0 mm 1 mps 615 mmHg 74%
    01:00 -4°C° 0 mm 1 mps 615 mmHg 74%
    02:00 -4°C° 0 mm 1 mps 615 mmHg 74%
    03:00 -4°C° 0 mm 1 mps 615 mmHg 74%
    04:00 -3°C° 0 mm 1 mps 615 mmHg 73%
    05:00 -3°C° 0 mm 1 mps 615 mmHg 73%
    06:00 -3°C° 0 mm 1 mps 615 mmHg 73%
    07:00 -2°C° 0 mm 1 mps 615 mmHg 73%
    08:00 -2°C° 0 mm 1 mps 616 mmHg 73%
    09:00 -1°C° 0 mm 1 mps 616 mmHg 73%
    10:00 0°C° 0 mm 1 mps 616 mmHg 73%
    11:00 +1°C° 0 mm 1 mps 616 mmHg 72%
    12:00 +2°C° 0 mm 1 mps 616 mmHg 72%
    13:00 +2°C° 0 mm 1 mps 616 mmHg 73%
    14:00 +2°C° 0 mm 1 mps 616 mmHg 74%
    15:00 +2°C° 0 mm 1 mps 616 mmHg 74%
    16:00 +1°C° 0 mm 1 mps 615 mmHg 74%
    17:00 0°C° 0 mm 1 mps 615 mmHg 73%
    18:00 -1°C° 0 mm 1 mps 615 mmHg 73%
    19:00 -2°C° 0 mm 1 mps 615 mmHg 71%
    20:00 -2°C° 0 mm 1 mps 615 mmHg 70%
    21:00 -2°C° 0 mm 1 mps 615 mmHg 69%
    22:00 -2°C° 0 mm 1 mps 615 mmHg 69%
    23:00 -2°C° 0 mm 1 mps 615 mmHg 69%
    Show more